This is the latest recevied weather packets stored in our database for station/object W3JGB. If no packets are shown the sender has not sent any weather packets the latest 10 day(s).
| Time | Temp. | Humidity | Pressure | Rain* | Wind** | Luminosity | Snow |
|---|---|---|---|---|---|---|---|
| 1777902053 | 16.11° C | 43% | 1011.2 hPa | 0 mm | - | 561 W/m² | - |
| 1777901146 | 16.11° C | 44% | 1011.5 hPa | 0 mm | - | 435 W/m² | - |
| 1777900541 | 16.11° C | 42% | 1011.4 hPa | 0 mm | - | 429 W/m² | - |
| 1777898723 | 15° C | 46% | 1011.9 hPa | 0 mm | - | 316 W/m² | - |
| 1777898118 | 14.44° C | 49% | 1011.8 hPa | 0 mm | - | 282 W/m² | - |
| 1777897814 | 13.89° C | 52% | 1011.9 hPa | 0 mm | - | 228 W/m² | - |
| 1777897510 | 12.78° C | 56% | 1012.1 hPa | 0 mm | - | 214 W/m² | - |
| 1777897206 | 12.22° C | 66% | 1011.9 hPa | 0 mm | - | 192 W/m² | - |
| 1777896902 | 10.56° C | 79% | 1011.8 hPa | 0 mm | - | 94 W/m² | - |
| 1777896600 | 10° C | 77% | 1012.1 hPa | 0 mm | - | 99 W/m² | - |
| 1777896296 | 9.44° C | 85% | 1011.9 hPa | 0 mm | - | 69 W/m² | - |
| 1777895995 | 9.44° C | 87% | 1012.1 hPa | 0 mm | - | 83 W/m² | - |
| 1777895692 | 8.89° C | 88% | 1012.1 hPa | 0 mm | - | 72 W/m² | - |
| 1777895087 | 7.78° C | 91% | 1012.1 hPa | 0 mm | - | 70 W/m² | - |
| 1777894784 | 7.78° C | 92% | 1012.3 hPa | 0 mm | - | 74 W/m² | - |
| 1777894480 | 6.11° C | 95% | 1012.4 hPa | 0 mm | - | 102 W/m² | - |
| 1777894178 | 5° C | 95% | 1012.3 hPa | 0 mm | - | 88 W/m² | - |
| 1777893875 | 3.89° C | 96% | 1012.3 hPa | 0 mm | - | 67 W/m² | - |
| 1777893571 | 3.89° C | 96% | 1012.2 hPa | 0 mm | - | 41 W/m² | - |
| 1777893268 | 3.33° C | 97% | 1012.5 hPa | 0 mm | - | 47 W/m² | - |
| 1777892964 | 3.33° C | 97% | 1012.2 hPa | 0 mm | - | 42 W/m² | - |
| 1777892661 | 2.78° C | 97% | 1012.2 hPa | 0 mm | - | 34 W/m² | - |
| 1777892357 | 2.78° C | 97% | 1012.4 hPa | 0 mm | - | 31 W/m² | - |
| 1777891751 | 1.67° C | 98% | 1012.3 hPa | 0 mm | - | 18 W/m² | - |
| 1777891447 | 1.67° C | 98% | 1012.3 hPa | 0 mm | - | 17 W/m² | - |
* Rain latest hour (hover to see other rain measurements)
** Current wind speed in m/s (hover to see current wind gust speed)